Location: Bastelaar
(51.0950°N, 3.8602°E)
Time: 01:09:10
(UTC+00:00)

Meteor 2-12 Rocket - Pass Details

Date: 18 November 2025
Orbit: 934 x 958 km, 82.5° (Epoch: 13 December)

Event Time Altitude Azimuth Distance (km) Brightness Sun altitude
Rises 17:00:04 0° 350° (N) 3,629 7.4 -10.5°
Reaches altitude 10° 17:02:35 10° 352° (N) 2,677 6.7 -10.8°
Maximum altitude 17:08:42 76° 78° (ENE) 973 4.4 -11.8°
Drops below altitude 10° 17:14:45 10° 165° (SSE) 2,644 6.8 -12.7°
Sets 17:17:13 0° 167° (SSE) 3,582 7.5 -13.1°
